Weather History for Cody, WY

Change the Weather History Date:

Tuesday, March 12, 2013

  Actual Average Record
Temperature  
Mean Temperature 34 °F -  
Max Temperature 50 °F 48 °F 72 °F (1934)
Min Temperature 17 °F 22 °F -16 °F (1932)
Degree Days  
Heating Degree Days 32    
Moisture  
Dew Point 19 °F    
Average Humidity 60    
Maximum Humidity 93    
Minimum Humidity 32    
Precipitation  
Precipitation 0.00 in - - ()
Sea Level Pressure  
Sea Level Pressure 30.15 in    
Wind  
Wind Speed 8 mph (SSE)    
Max Wind Speed 22 mph    
Max Gust Speed 32 mph    
Visibility 10 miles    
Events      
Averages and records for this station are not official NWS values.
T = Trace of Precipitation, MM = Missing Value Source: NWS Daily Summary

Daily Weather History Graph

Daily Weather History Graph

Search for Another Location

Airport:

Trip Planner

Search our weather history database for the weather conditions in past years. The results will help you decide how hot, cold, wet, or windy it might be!

Date:

Astronomy

Mar. 12, 2013 Rise Set
Actual Time 7:33 AM MDT 7:18 PM MDT
Civil Twilight 7:04 AM MDT 7:47 PM MDT
Nautical Twilight 6:30 AM MDT 8:21 PM MDT
Astronomical Twilight 5:56 AM MDT 8:55 PM MDT
Moon 7:37 AM MDT (3/12) 8:42 PM MDT (3/12)
Length of Visible Light 12h 43m
Length of Day
11h 45m
New Moon, 1% of the Moon is Illuminated
Mar 12
New Moon
Mar 19
First Quarter
Mar 27
Full
Apr 2
Last Quarter
Apr 10
New

Hourly Weather History & Observations

Time (MDT) Temp. Windchill Dew Point Humidity Pressure Visibility Wind Dir Wind Speed Gust Speed Precip Events Conditions
12:15 AM 23.0 °F 12.4 °F 17.6 °F 80% 30.22 in 10.0 mi North 10.4 mph - N/A   Overcast
12:35 AM 23.0 °F 13.1 °F 17.6 °F 80% 30.22 in 10.0 mi North 9.2 mph - N/A   Overcast
12:55 AM 23.0 °F 12.4 °F 17.6 °F 80% 30.22 in 10.0 mi North 10.4 mph - N/A   Overcast
1:15 AM 23.0 °F 12.4 °F 17.6 °F 80% 30.22 in 10.0 mi North 10.4 mph - N/A   Overcast
1:35 AM 21.2 °F 12.6 °F 17.6 °F 86% 30.23 in 10.0 mi North 6.9 mph - N/A   Overcast
1:55 AM 21.2 °F 13.6 °F 17.6 °F 86% 30.23 in 10.0 mi NE 5.8 mph - N/A   Overcast
2:35 AM 21.2 °F 10.9 °F 19.4 °F 93% 30.23 in 10.0 mi NE 9.2 mph - N/A   Overcast
2:55 AM 21.2 °F 13.6 °F 17.6 °F 86% 30.24 in 10.0 mi NNE 5.8 mph - N/A   Overcast
3:35 AM 21.2 °F - 17.6 °F 86% 30.23 in 10.0 mi Calm Calm - N/A   Overcast
3:55 AM 21.2 °F - 17.6 °F 86% 30.23 in 10.0 mi Calm Calm - N/A   Overcast
4:15 AM 21.2 °F - 17.6 °F 86% 30.22 in 10.0 mi Calm Calm - N/A   Overcast
4:35 AM 21.2 °F 14.9 °F 17.6 °F 86% 30.22 in 10.0 mi South 4.6 mph - N/A   Overcast
4:55 AM 21.2 °F 13.6 °F 17.6 °F 86% 30.22 in 10.0 mi South 5.8 mph - N/A   Overcast
5:15 AM 19.4 °F 12.8 °F 15.8 °F 86% 30.22 in 10.0 mi SE 4.6 mph - N/A   Overcast
5:55 AM 19.4 °F 11.5 °F 15.8 °F 86% 30.21 in 10.0 mi SE 5.8 mph - N/A   Overcast
6:15 AM 19.4 °F 11.5 °F 15.8 °F 86% 30.20 in 10.0 mi SE 5.8 mph - N/A   Mostly Cloudy
6:35 AM 19.4 °F 11.5 °F 15.8 °F 86% 30.21 in 10.0 mi SE 5.8 mph - N/A   Mostly Cloudy
6:55 AM 17.6 °F - 14.0 °F 86% 30.20 in 10.0 mi Calm Calm - N/A   Overcast
7:15 AM 19.4 °F - 15.8 °F 86% 30.19 in 10.0 mi Calm Calm - N/A   Overcast
7:35 AM 19.4 °F - 15.8 °F 86% 30.20 in 10.0 mi Calm Calm - N/A   Overcast
7:55 AM 17.6 °F - 15.8 °F 93% 30.20 in 10.0 mi Calm Calm - N/A   Overcast
8:15 AM 21.2 °F 12.6 °F 15.8 °F 80% 30.20 in 10.0 mi SSE 6.9 mph - N/A   Overcast
8:55 AM 23.0 °F 18.4 °F 15.8 °F 74% 30.20 in 10.0 mi SSE 3.5 mph - N/A   Overcast
9:15 AM 24.8 °F 16.1 °F 17.6 °F 74% 30.19 in 10.0 mi South 8.1 mph - N/A   Overcast
9:35 AM 26.6 °F 18.2 °F 15.8 °F 64% 30.18 in 10.0 mi South 8.1 mph - N/A   Mostly Cloudy
9:55 AM 28.4 °F 19.1 °F 17.6 °F 64% 30.20 in 10.0 mi SSE 10.4 mph - N/A   Partly Cloudy
10:15 AM 28.4 °F 20.4 °F 17.6 °F 64% 30.19 in 10.0 mi ESE 8.1 mph - N/A   Clear
10:35 AM 30.2 °F 22.6 °F 17.6 °F 60% 30.19 in 10.0 mi ESE 8.1 mph - N/A   Clear
10:55 AM 32.0 °F 23.6 °F 17.6 °F 55% 30.18 in 10.0 mi East 10.4 mph - N/A   Clear
11:15 AM 33.8 °F 26.4 °F 17.6 °F 52% 30.18 in 10.0 mi SE 9.2 mph - N/A   Scattered Clouds
11:35 AM 33.8 °F 26.4 °F 17.6 °F 52% 30.17 in 10.0 mi SE 9.2 mph - N/A   Overcast
11:55 AM 35.6 °F 28.0 °F 17.6 °F 48% 30.17 in 10.0 mi ESE 10.4 mph 16.1 mph N/A   Scattered Clouds
12:15 PM 35.6 °F 29.2 °F 17.6 °F 48% 30.16 in 10.0 mi ESE 8.1 mph 16.1 mph N/A   Clear
12:35 PM 37.4 °F 30.3 °F 17.6 °F 45% 30.16 in 10.0 mi SE 10.4 mph - N/A   Partly Cloudy
1:15 PM 39.2 °F 31.6 °F 17.6 °F 42% 30.14 in 10.0 mi ESE 12.7 mph - N/A   Clear
1:55 PM 39.2 °F 33.0 °F 19.4 °F 45% 30.13 in 10.0 mi SE 9.2 mph - N/A   Clear
2:15 PM 41.0 °F 35.2 °F 19.4 °F 42% 30.12 in 10.0 mi ESE 9.2 mph 17.3 mph N/A   Clear
2:35 PM 41.0 °F 35.2 °F 19.4 °F 42% 30.11 in 10.0 mi SE 9.2 mph - N/A   Clear
2:55 PM 41.0 °F 34.3 °F 19.4 °F 42% 30.09 in 10.0 mi ESE 11.5 mph 18.4 mph N/A   Clear
3:15 PM 41.0 °F 35.2 °F 17.6 °F 39% 30.09 in 10.0 mi East 9.2 mph - N/A   Clear
3:35 PM 42.8 °F 38.0 °F 17.6 °F 36% 30.09 in 10.0 mi ESE 8.1 mph - N/A   Clear
4:15 PM 44.6 °F 38.8 °F 19.4 °F 37% 30.08 in 10.0 mi SE 11.5 mph - N/A   Scattered Clouds
4:35 PM 44.6 °F 39.7 °F 19.4 °F 37% 30.08 in 10.0 mi ESE 9.2 mph - N/A   Scattered Clouds
4:55 PM 46.4 °F 41.5 °F 19.4 °F 34% 30.07 in 10.0 mi ESE 10.4 mph - N/A   Clear
5:15 PM 48.2 °F - 19.4 °F 32% 30.06 in 10.0 mi NE 6.9 mph - N/A   Clear
5:55 PM 50.0 °F - 21.2 °F 32% 30.05 in 10.0 mi WNW 12.7 mph 24.2 mph N/A   Clear
6:35 PM 48.2 °F - 23.0 °F 37% 30.05 in 10.0 mi WNW 18.4 mph 24.2 mph N/A   Partly Cloudy
6:55 PM 46.4 °F 42.9 °F 21.2 °F 37% 30.05 in 10.0 mi West 6.9 mph - N/A   Partly Cloudy
7:15 PM 44.6 °F 39.7 °F 21.2 °F 39% 30.06 in 10.0 mi North 9.2 mph 16.1 mph N/A   Clear
7:35 PM 42.8 °F 41.1 °F 19.4 °F 39% 30.06 in 10.0 mi West 3.5 mph - N/A   Clear
7:55 PM 42.8 °F 38.6 °F 19.4 °F 39% 30.06 in 10.0 mi NW 6.9 mph 16.1 mph N/A   Clear
8:15 PM 46.4 °F 41.5 °F 23.0 °F 40% 30.06 in 10.0 mi West 10.4 mph 17.3 mph N/A   Clear
8:35 PM 46.4 °F 39.2 °F 24.8 °F 43% 30.05 in 10.0 mi WSW 18.4 mph 26.5 mph N/A   Clear
8:55 PM 46.4 °F 41.1 °F 24.8 °F 43% 30.07 in 10.0 mi West 11.5 mph 28.8 mph N/A   Clear
9:15 PM 46.4 °F 39.2 °F 24.8 °F 43% 30.06 in 10.0 mi West 18.4 mph 28.8 mph N/A   Clear
9:35 PM 46.4 °F 39.8 °F 24.8 °F 43% 30.07 in 10.0 mi WSW 16.1 mph 29.9 mph N/A   Clear
9:55 PM 46.4 °F 40.4 °F 26.6 °F 46% 30.07 in 10.0 mi West 13.8 mph 31.1 mph N/A   Clear
10:15 PM 46.4 °F 39.0 °F 26.6 °F 46% 30.07 in 10.0 mi WSW 19.6 mph 32.2 mph N/A   Partly Cloudy
10:35 PM 46.4 °F 39.5 °F 26.6 °F 46% 30.07 in 10.0 mi West 17.3 mph 27.6 mph N/A   Clear
10:55 PM 46.4 °F 40.1 °F 26.6 °F 46% 30.07 in 10.0 mi West 15.0 mph 26.5 mph N/A   Clear
11:15 PM 46.4 °F 38.5 °F 28.4 °F 50% 30.07 in 10.0 mi West 21.9 mph 28.8 mph N/A   Clear
11:56 PM 48.2 °F - 26.6 °F 43% 30.06 in 10.0 mi West 20.7 mph 32.2 mph N/A   Clear